{"data":{"norad_id":67102,"intl_designator":"2025-299A","name":"STARLINK-36255","alt_names":[],"object_type":"PAYLOAD","status":"ACTIVE","operator":null,"country":"US","launch_date":"2025-12-15","launch_site_code":"AFETR","launch_vehicle":null,"mission":null,"orbit_class":"UNKNOWN","rcs_meters":null,"size_class":null,"mass_kg":null,"dimensions":null,"purposes":["comms"],"wikipedia_slug":null,"has_3d_model":false,"image_url":null,"decayed_at":null,"tle_current":{"epoch":"2026-05-24T22:06:55.517760Z","epoch_age_seconds":84976,"freshness":"FRESH","line1":"1 67102U 25299A   26144.92147590  .00020537  00000+0  75339-3 0  9993","line2":"2 67102  42.9980  98.5900 0000461 271.7252  88.3546 15.27595342 24775","mean_motion":15.27595342,"eccentricity":4.61e-5,"inclination_deg":42.998,"raan_deg":98.59,"arg_perigee_deg":271.7252,"mean_anomaly_deg":88.3546,"bstar":0.00075339,"rev_number":2477,"period_min":94.26580197048,"perigee_km":482.68685839565,"apogee_km":483.31945551812,"semimajor_km":6861.1401569569,"source":"CELESTRAK","updated_at":"2026-05-25T13:38:21.472322Z"}}}